MHY YTRE-WMKN

Flight info

Callsign MHY
Flight time N/A
Altitude 18000
Route DCT
Aircraft B350/L-V/N

Departure

Time N/A
Airport Taree Airport (YTRE)

Arrival

Time 2026-04-30 19:35
Airport Sultan Mahmud Airport (WMKN)
Time Latitude Longitude Altitude Speed Heading
2026-04-30 19:35 5.38169 103.10360 27 ft 0 kts 315°
2026-04-30 19:35 5.38169 103.10359 27 ft 2 kts 315°
2026-04-30 19:35 5.38206 103.10300 27 ft 15 kts 271°
2026-04-30 19:36 5.38122 103.10192 27 ft 23 kts 222°
2026-04-30 19:36 5.37986 103.10059 26 ft 30 kts 226°
2026-04-30 19:36 5.37638 103.09716 26 ft 38 kts 224°
2026-04-30 19:37 5.37437 103.09520 25 ft 41 kts 225°
2026-04-30 19:37 5.37225 103.09313 25 ft 41 kts 223°
2026-04-30 19:37 5.37026 103.09138 30 ft 24 kts 203°
2026-04-30 19:37 5.36989 103.09126 32 ft 0 kts 192°
2026-04-30 19:38 5.36972 103.09122 32 ft 6 kts 191°
2026-04-30 19:38 5.36918 103.09099 35 ft 10 kts 226°
2026-04-30 19:38 5.36950 103.09049 34 ft 13 kts 359°
2026-04-30 19:38 5.37014 103.09106 31 ft 8 kts 43°
2026-04-30 19:39 5.37022 103.09113 31 ft 0 kts 43°
2026-04-30 19:39 5.37140 103.09225 27 ft 72 kts 42°
2026-04-30 19:40 5.37714 103.09798 129 ft 138 kts 47°
2026-04-30 19:40 5.38345 103.10514 412 ft 140 kts 47°
2026-04-30 19:40 5.39031 103.11234 644 ft 143 kts 45°
2026-04-30 19:40 5.39717 103.11923 1192 ft 134 kts 45°
2026-04-30 19:41 5.40461 103.12444 1611 ft 139 kts 23°
2026-04-30 19:41 5.41448 103.12756 1939 ft 149 kts 16°
2026-04-30 19:41 5.42455 103.12840 2487 ft 146 kts 356°
2026-04-30 19:41 5.43429 103.12515 2896 ft 153 kts 334°
2026-04-30 19:42 5.44237 103.11805 3282 ft 162 kts 310°
2026-04-30 19:42 5.44846 103.10770 3535 ft 179 kts 299°
2026-04-30 19:42 5.45371 103.09641 4037 ft 175 kts 296°
2026-04-30 19:42 5.45866 103.08574 4536 ft 171 kts 303°
2026-04-30 19:43 5.46563 103.07541 4769 ft 181 kts 304°
2026-04-30 19:43 5.47160 103.06426 5003 ft 184 kts 303°
2026-04-30 19:43 5.47816 103.05307 5163 ft 192 kts 304°
2026-04-30 19:44 5.49570 103.03220 5558 ft 192 kts 316°
2026-04-30 19:44 5.50404 103.02177 5633 ft 203 kts 309°
2026-04-30 19:44 5.51244 103.01024 5848 ft 202 kts 309°
2026-04-30 19:44 5.52073 102.99880 6071 ft 202 kts 309°
2026-04-30 19:45 5.52897 102.98739 6284 ft 202 kts 309°
2026-04-30 19:45 5.53710 102.97607 6470 ft 204 kts 309°
2026-04-30 19:45 5.54575 102.96406 6505 ft 215 kts 309°
2026-04-30 19:45 5.55467 102.95178 6510 ft 224 kts 309°
2026-04-30 19:46 5.56412 102.93882 6512 ft 232 kts 309°
2026-04-30 19:46 5.57378 102.92558 6504 ft 239 kts 309°
2026-04-30 19:46 5.58372 102.91202 6502 ft 244 kts 309°
2026-04-30 19:46 5.59400 102.89812 6502 ft 248 kts 309°
2026-04-30 19:47 5.60440 102.88405 6507 ft 251 kts 309°
2026-04-30 19:47 5.61134 102.87468 6502 ft 253 kts 309°
2026-04-30 19:47 5.62551 102.85565 6498 ft 255 kts 309°
2026-04-30 19:47 5.63614 102.84135 6495 ft 256 kts 309°
2026-04-30 19:48 5.64683 102.82696 6504 ft 256 kts 309°
2026-04-30 19:48 5.65739 102.81277 6501 ft 257 kts 309°
2026-04-30 19:48 5.66814 102.79832 6506 ft 257 kts 309°
2026-04-30 19:48 5.67903 102.78369 6502 ft 258 kts 309°
2026-04-30 19:49 5.68974 102.76925 6500 ft 258 kts 309°
2026-04-30 19:49 5.71132 102.74007 6492 ft 259 kts 309°
2026-04-30 19:49 5.72205 102.72557 6491 ft 259 kts 309°
2026-04-30 19:50 5.73289 102.71098 6492 ft 260 kts 309°
2026-04-30 19:50 5.74373 102.69643 6495 ft 260 kts 309°
2026-04-30 19:50 5.75478 102.68162 6505 ft 268 kts 309°
2026-04-30 19:50 5.76594 102.66665 6506 ft 273 kts 309°
2026-04-30 19:51 5.77757 102.65115 6500 ft 279 kts 309°
2026-04-30 19:51 5.78938 102.63539 6503 ft 284 kts 309°
2026-04-30 19:51 5.80137 102.61939 6498 ft 287 kts 309°
2026-04-30 19:51 5.81344 102.60330 6498 ft 289 kts 309°
2026-04-30 19:52 5.82545 102.58726 6497 ft 291 kts 309°
2026-04-30 19:52 5.83721 102.57051 6490 ft 294 kts 303°
2026-04-30 19:52 5.84830 102.55329 6501 ft 293 kts 307°
2026-04-30 19:52 5.86055 102.53683 6498 ft 294 kts 310°
2026-04-30 19:53 5.87339 102.52070 6491 ft 294 kts 311°
2026-04-30 19:53 5.88631 102.50495 6481 ft 294 kts 312°
2026-04-30 19:53 5.89941 102.48919 6485 ft 294 kts 312°
2026-04-30 19:53 5.91264 102.47337 6489 ft 294 kts 312°
2026-04-30 19:54 5.92589 102.45755 6484 ft 294 kts 312°
2026-04-30 19:54 5.93905 102.44187 6490 ft 294 kts 313°
2026-04-30 19:54 5.95224 102.42616 6493 ft 294 kts 312°
2026-04-30 19:54 5.96533 102.41058 6496 ft 294 kts 312°
2026-04-30 19:55 5.97865 102.39471 6492 ft 295 kts 313°
2026-04-30 19:55 5.99179 102.37905 6500 ft 295 kts 313°
2026-04-30 19:55 6.00506 102.36324 6499 ft 295 kts 313°
2026-04-30 19:55 6.01826 102.34753 6501 ft 295 kts 312°
2026-04-30 19:56 6.03163 102.33159 6506 ft 295 kts 312°
2026-04-30 19:56 6.04479 102.31591 6496 ft 295 kts 312°
2026-04-30 19:56 6.05812 102.30003 6486 ft 295 kts 312°
2026-04-30 19:56 6.07138 102.28423 6493 ft 294 kts 312°
2026-04-30 19:57 6.08454 102.26854 6497 ft 294 kts 312°
2026-04-30 19:57 6.09769 102.25287 6498 ft 294 kts 312°
2026-04-30 19:57 6.11091 102.23711 6502 ft 294 kts 313°
2026-04-30 19:57 6.12406 102.22144 6494 ft 294 kts 313°
2026-04-30 19:58 6.13741 102.20551 6499 ft 294 kts 313°
2026-04-30 19:58 6.15055 102.18985 6500 ft 294 kts 312°
2026-04-30 19:58 6.16394 102.17389 6504 ft 294 kts 312°
2026-04-30 19:58 6.17720 102.15807 6511 ft 295 kts 312°
2026-04-30 19:59 6.19040 102.14233 6493 ft 295 kts 312°
2026-04-30 19:59 6.20367 102.12650 6506 ft 295 kts 312°
2026-04-30 19:59 6.23021 102.09484 6505 ft 296 kts 312°
2026-04-30 20:00 6.24355 102.07892 6490 ft 296 kts 312°
2026-04-30 20:00 6.25679 102.06313 6486 ft 296 kts 312°
2026-04-30 20:00 6.27003 102.04733 6491 ft 295 kts 312°
2026-04-30 20:00 6.28330 102.03149 6488 ft 296 kts 312°
2026-04-30 20:01 6.30990 101.99975 6488 ft 296 kts 312°
2026-04-30 20:01 6.32311 101.98399 6480 ft 296 kts 312°
2026-04-30 20:01 6.33633 101.96820 6487 ft 295 kts 312°
2026-04-30 20:02 6.36285 101.93654 6486 ft 295 kts 312°
2026-04-30 20:02 6.37619 101.92061 6485 ft 295 kts 312°
2026-04-30 20:03 6.40239 101.88940 6432 ft 283 kts 312°
2026-04-30 20:03 6.41420 101.87433 6335 ft 271 kts 309°
2026-04-30 20:03 6.42377 101.86075 6102 ft 269 kts 305°
2026-04-30 20:05 6.43756 101.84001 5927 ft 254 kts 309°
2026-04-30 20:05 6.44788 101.82593 5683 ft 242 kts 309°
2026-04-30 20:05 6.46809 101.79871 4461 ft 252 kts 303°
2026-04-30 20:06 6.47059 101.79459 4303 ft 251 kts 301°
2026-04-30 20:08 6.47103 101.79386 4279 ft 251 kts 303°
2026-04-30 20:08 6.48010 101.77930 3887 ft 243 kts 304°
2026-04-30 20:08 6.48953 101.76530 3466 ft 239 kts 306°
2026-04-30 20:08 6.49905 101.75193 3072 ft 234 kts 307°
2026-04-30 20:09 6.50809 101.73841 2697 ft 228 kts 306°
2026-04-30 20:09 6.51709 101.72551 2339 ft 222 kts 302°
2026-04-30 20:09 6.52342 101.69604 1744 ft 210 kts 265°
2026-04-30 20:10 6.51193 101.67234 1657 ft 171 kts 237°
2026-04-30 20:10 6.50399 101.66355 1349 ft 169 kts 206°
2026-04-30 20:10 6.49391 101.66383 1302 ft 135 kts 135°
2026-04-30 20:11 6.48818 101.68097 1409 ft 133 kts 108°
2026-04-30 20:11 6.48525 101.69015 1535 ft 142 kts 105°
2026-04-30 20:11 6.48340 101.69967 1581 ft 128 kts 89°
2026-04-30 20:12 6.48413 101.71814 1227 ft 134 kts 85°
2026-04-30 20:12 6.48729 101.72635 1066 ft 132 kts 49°
2026-04-30 20:12 6.49470 101.73181 630 ft 128 kts 36°
2026-04-30 20:13 6.50241 101.73593 226 ft 126 kts 23°
2026-04-30 20:13 6.51002 101.73901 40 ft 105 kts 26°
2026-04-30 20:13 6.51599 101.74170 29 ft 80 kts 24°
2026-04-30 20:13 6.51927 101.74309 29 ft 19 kts 25°
2026-04-30 20:14 6.51971 101.74386 29 ft 22 kts 108°
2026-04-30 20:14 6.51922 101.74515 32 ft 16 kts 72°
2026-04-30 20:14 6.52012 101.74558 33 ft 16 kts 25°
2026-04-30 20:14 6.52085 101.74608 33 ft 6 kts 80°
2026-04-30 20:15 6.52080 101.74631 34 ft 0 kts 116°